STARLINK-31193, 58797

Orbit data source: Space-Track

STARLINK-31193, 58797 is a payload satellite owned by SpaceX/Seattle (US) in LEO that was launched on Mon, 15 Jan 2024 UTC via an FALCON 9 launch vehicle from the Air Force Eastern Test Range (AFETR). Payload-class satellites include a variety of spacecraft equipped with specific instruments for various scientific and technological missions. These include communications satellites like Starlink; space stations such as the ISS; scientific satellites like the Hubble; Earth observation satellites from companies like Planet Labs, Umbra, and HawkEye 360; GPS; miniature CubeSats for education and research; and military/defense satellites.

Loading next visibility...
Identifier
58797, 2024-012L
Orbit
LEO
Country
Flag of USUS
Related business
Manufacturer
SpaceX/Seattle
Mission
Operational Commercial Communications
Bus & Motor
STARLINK V2M, Unknown motor
Mass
730 kg wet, ~700 kg dry
Launch date (UTC)
2024-01-15 (2 years ago)
Launch vehicle
FALCON 9
Launch site
Air Force Eastern Test Range (AFETR)
Object type
Payload
Rocket body
Debris
Shape & HBR
Box + 2 Pan, 17.7 m
Radar Cross Section
33.884 m², Large (>1 m²)

Expand to show TLE details & history
Last TLE update: 2 days ago

TLE from 2 days ago
0 STARLINK-31193
1 58797U 24012L   26171.45595369  .00000399  00000-0  24017-4 0  9997
2 58797  43.0018 304.8020 0001242 265.6485  94.4225 15.27572289136954
Epoch: 2026-06-20T10:56Z
TLE epoch observation values (Epoch: 2026-06-20T10:56:34.398Z)
Latitude
-0.00002°
Longitude
-128.01167°
Altitude
482.914 km
Speed
7.626 km/s
True Right ascension
20h 19m 12s
True Declination
0° 00' 00"
Sunlit
Object was in full shadow at epoch
Visualization orbit readout
Latitude
Unknown
Longitude
Unknown
Altitude
Unknown
Speed
Unknown
Apparent Right ascension
Unknown
Apparent Declination
Unknown
Sunlit
N/A
Visualization observer readout
Local Sidereal Time
21:26:30
Azimuth
Unknown
Elevation
Unknown
Doppler factor
Unknown
Orbital elements
Apogee altitude
485.869 km
Perigee altitude
484.165 km
Semi-major axis
6,863.154 km
Eccentricity
0.00012
Inclination
43.0018°
RAAN
304.802°
Arg. of periapsis
265.6485°
True anomaly
94.43669°
Mean anomaly
94.4225°
Eccentric anomaly
94.42959°
Mean motion
3.81731 °/min
Orbital period
94.31 mins
BSTAR
0.000024017
Loading maneuver chart data...
Computing Atmospheric mass density...
Loading historical data...
Loading historical data...
Loading historical data...
Loading historical data...
Loading historical data...
Loading historical data...
Loading historical data...

Documentation

Showing up to 5 results
|